Weather History for Bay City, TX

Change the Weather History Date:

Tuesday, January 28, 2014

  Actual Average (KLBX) Record (KLBX)
Temperature  
Mean Temperature 39 °F -  
Max Temperature 45 °F 60 °F 78 °F (2002)
Min Temperature 33 °F 46 °F 30 °F (2004)
Degree Days  
Heating Degree Days 26    
Moisture  
Dew Point 28 °F    
Average Humidity 70    
Maximum Humidity 94    
Minimum Humidity 47    
Precipitation  
Precipitation 0.03 in - - ()
Sea Level Pressure  
Sea Level Pressure 30.29 in    
Wind  
Wind Speed 11 mph (North)    
Max Wind Speed 21 mph    
Max Gust Speed 25 mph    
Visibility 10 miles    
Events Rain , Snow    
Averages and records for this station are not official NWS values.
T = Trace of Precipitation, MM = Missing Value Source: NWS Daily Summary

Daily Weather History Graph

Daily Weather History Graph

Search for Another Location

Airport:

Trip Planner

Search our weather history database for the weather conditions in past years. The results will help you decide how hot, cold, wet, or windy it might be!

Date:

Astronomy

Jan. 28, 2014 Rise Set
Actual Time 7:14 AM CST 5:59 PM CST
Civil Twilight 6:49 AM CST 6:24 PM CST
Nautical Twilight 6:20 AM CST 6:52 PM CST
Astronomical Twilight 5:52 AM CST 7:20 PM CST
Moon 4:53 AM CST (1/28) 3:52 PM CST (1/28)
Length of Visible Light 11h 34m
Length of Day
10h 44m
Waning Crescent, 7% of the Moon is Illuminated
Jan 28
Waning Crescent
Jan 30
New
Feb 6
First Quarter
Feb 14
Full
Feb 22
Last Quarter

Hourly Weather History & Observations

Time (CST) Temp. Windchill Dew Point Humidity Pressure Visibility Wind Dir Wind Speed Gust Speed Precip Events Conditions
12:15 AM 45.9 °F 41.2 °F 26.6 °F 47% 30.14 in 10.0 mi NNW 9.2 mph - N/A   Clear
12:35 AM 45.5 °F 41.3 °F 27.0 °F 48% 30.14 in 10.0 mi NNW 8.1 mph - N/A   Clear
12:55 AM 45.0 °F 39.3 °F 26.4 °F 48% 30.14 in 10.0 mi NNW 11.5 mph - N/A   Clear
1:15 AM 44.4 °F 39.5 °F 25.9 °F 48% 30.14 in 10.0 mi North 9.2 mph 17.3 mph N/A   Clear
1:35 AM 43.9 °F 38.3 °F 25.5 °F 48% 30.14 in 10.0 mi North 10.4 mph - N/A   Clear
1:55 AM 43.5 °F 38.3 °F 25.2 °F 48% 30.14 in 10.0 mi North 9.2 mph 16.1 mph N/A   Clear
2:15 AM 43.0 °F 38.8 °F 25.2 °F 49% 30.13 in 10.0 mi North 6.9 mph - N/A   Clear
2:35 AM 42.4 °F 37.5 °F 24.8 °F 50% 30.13 in 10.0 mi NNW 8.1 mph - N/A   Clear
2:55 AM 42.6 °F 36.8 °F 23.9 °F 48% 30.13 in 10.0 mi North 10.4 mph 18.4 mph N/A   Scattered Clouds
3:15 AM 42.8 °F 36.6 °F 23.7 °F 47% 30.14 in 10.0 mi North 11.5 mph 18.4 mph N/A   Mostly Cloudy
3:35 AM 42.8 °F 36.6 °F 23.5 °F 47% 30.14 in 10.0 mi North 11.5 mph 17.3 mph N/A   Overcast
3:55 AM 43.0 °F 36.4 °F 23.7 °F 47% 30.14 in 10.0 mi North 12.7 mph 19.6 mph N/A   Overcast
4:15 AM 42.8 °F 35.4 °F 23.7 °F 47% 30.15 in 10.0 mi North 15.0 mph 24.2 mph N/A   Overcast
4:35 AM 42.8 °F 36.2 °F 23.7 °F 47% 30.16 in 10.0 mi North 12.7 mph - N/A   Overcast
4:55 AM 42.1 °F 33.9 °F 23.2 °F 47% 30.15 in 10.0 mi North 17.3 mph 23.0 mph N/A   Overcast
5:15 AM 41.7 °F 34.4 °F 23.2 °F 48% 30.16 in 10.0 mi North 13.8 mph 19.6 mph N/A   Overcast
5:35 AM 41.2 °F 35.5 °F 23.4 °F 49% 30.18 in 10.0 mi North 9.2 mph - N/A   Overcast
5:55 AM 41.0 °F 34.3 °F 23.5 °F 50% 30.18 in 10.0 mi North 11.5 mph 19.6 mph N/A   Overcast
6:15 AM 40.6 °F 33.0 °F 24.1 °F 52% 30.20 in 10.0 mi North 13.8 mph - N/A   Overcast
6:35 AM 40.1 °F 32.0 °F 24.6 °F 54% 30.21 in 10.0 mi North 15.0 mph 19.6 mph N/A   Overcast
6:55 AM 39.7 °F 32.3 °F 25.5 °F 57% 30.23 in 10.0 mi North 12.7 mph 19.6 mph N/A   Mostly Cloudy
7:15 AM 39.4 °F 30.7 °F 26.2 °F 59% 30.23 in 10.0 mi North 16.1 mph 24.2 mph N/A   Scattered Clouds
7:35 AM 39.0 °F 29.9 °F 26.4 °F 61% 30.24 in 10.0 mi North 17.3 mph 20.7 mph N/A   Scattered Clouds
7:55 AM 38.5 °F 31.1 °F 26.8 °F 63% 30.26 in 10.0 mi North 11.5 mph - N/A   Scattered Clouds
8:15 AM 38.1 °F 29.5 °F 27.3 °F 65% 30.27 in 10.0 mi North 15.0 mph - N/A   Scattered Clouds
8:35 AM 37.6 °F 30.0 °F 28.8 °F 70% 30.27 in 10.0 mi North 11.5 mph 18.4 mph N/A   Scattered Clouds
8:55 AM 38.1 °F 30.7 °F 28.8 °F 69% 30.28 in 10.0 mi North 11.5 mph 17.3 mph N/A   Mostly Cloudy
9:15 AM 38.8 °F 30.8 °F 28.6 °F 67% 30.29 in 10.0 mi North 13.8 mph - N/A   Light Drizzle
9:35 AM 38.8 °F 31.2 °F 29.7 °F 70% 30.29 in 10.0 mi North 12.7 mph 18.4 mph N/A   Light Drizzle
9:55 AM 39.2 °F 30.5 °F 27.1 °F 62% 30.31 in 10.0 mi NNE 16.1 mph 23.0 mph N/A   Overcast
10:15 AM 38.3 °F 29.7 °F 27.1 °F 64% 30.31 in 10.0 mi North 15.0 mph 21.9 mph N/A Rain Light Rain
10:35 AM 37.0 °F 26.4 °F 29.3 °F 74% 30.32 in 10.0 mi North 20.7 mph 25.3 mph N/A Rain Light Rain
10:55 AM 35.8 °F 25.7 °F 30.4 °F 81% 30.32 in 10.0 mi North 17.3 mph 24.2 mph N/A Rain Light Rain
11:15 AM 34.7 °F 24.0 °F 31.3 °F 87% 30.32 in 10.0 mi North 18.4 mph 23.0 mph N/A Rain Light Rain
11:35 AM 33.8 °F 24.8 °F 31.8 °F 92% 30.33 in 7.0 mi North 12.7 mph 24.2 mph N/A   Overcast
11:55 AM 33.8 °F 23.5 °F 32.2 °F 94% 30.32 in 4.0 mi North 16.1 mph 21.9 mph 0.01 in Snow Light Snow
12:15 PM 33.8 °F 23.9 °F 32.2 °F 94% 30.32 in 5.0 mi North 15.0 mph - 0.01 in   Overcast
12:35 PM 34.0 °F 26.6 °F 32.0 °F 92% 30.33 in 7.0 mi North 9.2 mph 18.4 mph 0.02 in Rain Rain
12:55 PM 34.3 °F 25.9 °F 32.4 °F 92% 30.32 in 10.0 mi North 11.5 mph 16.1 mph 0.02 in Rain Light Rain
1:15 PM 34.5 °F 27.3 °F 32.4 °F 92% 30.32 in 10.0 mi North 9.2 mph - N/A   Overcast
1:35 PM 34.3 °F 25.5 °F 32.2 °F 92% 30.30 in 10.0 mi North 12.7 mph 19.6 mph N/A   Overcast
1:55 PM 34.2 °F 25.2 °F 31.8 °F 91% 30.31 in 10.0 mi North 12.7 mph 17.3 mph N/A   Overcast
2:15 PM 33.6 °F 22.9 °F 31.3 °F 91% 30.31 in 10.0 mi North 17.3 mph - N/A   Overcast
2:35 PM 33.4 °F 25.9 °F 30.0 °F 87% 30.32 in 10.0 mi North 9.2 mph - N/A   Overcast
2:55 PM 33.4 °F 24.8 °F 29.8 °F 87% 30.32 in 10.0 mi North 11.5 mph - N/A   Overcast
3:15 PM 33.1 °F 23.9 °F 28.2 °F 82% 30.33 in 10.0 mi North 12.7 mph - N/A   Overcast
3:35 PM 33.3 °F 25.7 °F 28.6 °F 83% 30.33 in 10.0 mi North 9.2 mph - N/A   Overcast
3:55 PM 33.8 °F 26.4 °F 29.3 °F 84% 30.33 in 10.0 mi North 9.2 mph - N/A   Overcast
4:15 PM 34.5 °F 25.3 °F 29.1 °F 81% 30.33 in 10.0 mi North 13.8 mph 17.3 mph N/A   Overcast
4:35 PM 34.3 °F 26.5 °F 27.7 °F 77% 30.34 in 10.0 mi North 10.4 mph 16.1 mph N/A   Mostly Cloudy
4:55 PM 34.2 °F 25.7 °F 27.5 °F 77% 30.34 in 10.0 mi North 11.5 mph 16.1 mph N/A   Scattered Clouds
5:15 PM 34.2 °F 26.2 °F 27.9 °F 78% 30.34 in 10.0 mi North 10.4 mph - N/A   Clear
5:35 PM 34.3 °F 27.0 °F 27.7 °F 77% 30.35 in 10.0 mi North 9.2 mph - N/A   Mostly Cloudy
5:55 PM 34.3 °F 28.4 °F 27.5 °F 76% 30.37 in 10.0 mi North 6.9 mph - N/A   Overcast
6:15 PM 34.3 °F 28.4 °F 27.3 °F 76% 30.38 in 10.0 mi North 6.9 mph - N/A   Overcast
6:35 PM 34.3 °F 27.7 °F 27.0 °F 74% 30.38 in 10.0 mi North 8.1 mph - N/A   Overcast
6:55 PM 34.5 °F 29.4 °F 25.9 °F 71% 30.37 in 10.0 mi North 5.8 mph - N/A   Overcast
7:15 PM 34.3 °F 27.7 °F 25.7 °F 71% 30.38 in 10.0 mi North 8.1 mph - N/A   Light Drizzle
7:35 PM 33.8 °F 27.0 °F 26.2 °F 74% 30.38 in 10.0 mi North 8.1 mph - N/A   Overcast
7:55 PM 33.4 °F 27.3 °F 26.6 °F 76% 30.38 in 10.0 mi North 6.9 mph - N/A   Overcast
8:15 PM 33.3 °F 27.9 °F 27.1 °F 78% 30.38 in 10.0 mi North 5.8 mph - N/A   Overcast
8:35 PM 33.4 °F - 27.3 °F 78% 30.40 in 10.0 mi Calm Calm - N/A   Overcast
8:55 PM 33.8 °F - 27.7 °F 78% 30.41 in 10.0 mi Calm Calm - N/A   Overcast
9:15 PM 34.0 °F - 27.7 °F 78% 30.42 in 10.0 mi Calm Calm - N/A   Overcast
9:35 PM 34.0 °F - 27.9 °F 78% 30.43 in 10.0 mi Calm Calm - N/A   Overcast
9:55 PM 34.2 °F - 28.4 °F 79% 30.43 in 10.0 mi Calm Calm - N/A   Overcast
10:15 PM 34.3 °F 31.4 °F 27.9 °F 77% 30.42 in 10.0 mi North 3.5 mph - N/A   Overcast
10:35 PM 34.3 °F 31.4 °F 27.7 °F 77% 30.43 in 10.0 mi NNW 3.5 mph - N/A   Light Drizzle
10:55 PM 34.3 °F 30.2 °F 28.2 °F 78% 30.42 in 10.0 mi NNW 4.6 mph - N/A   Mostly Cloudy
11:15 PM 34.5 °F 31.6 °F 28.4 °F 78% 30.42 in 10.0 mi NNW 3.5 mph - N/A   Overcast
11:35 PM 34.7 °F - 28.6 °F 78% 30.42 in 10.0 mi Calm Calm - N/A   Scattered Clouds
11:55 PM 34.9 °F 32.0 °F 28.9 °F 79% 30.42 in 10.0 mi NNW 3.5 mph - N/A   Clear